Location: Palmerston North
(40.3500°S, 175.6170°E)
Time: 17:18:25
(UTC+13:00)

ARGOS - Pass Details

Date: 24 January 2019
Orbit: 821 x 834 km, 98.5° (Epoch: 14 October)

Event Time Altitude Azimuth Distance (km) Brightness Sun altitude
Rises 23:09:53 0° 173° (S) 3,393 7.0 -22.1°
Reaches altitude 10° 23:12:18 10° 177° (S) 2,453 6.3 -22.4°
Maximum altitude 23:17:33 52° 251° (WSW) 1,031 3.9 -23.0°
Enters shadow 23:21:38 16° 322° (NW) 2,012 5.0 -23.4°
